Regional Weather Roundup
Issued by NWS

Home | Current Version | Previous Version | Text Only | Print | Product List | Glossary On
Versions: 1 2 3 4 5 6 7 8 9 10 11 12 13 14 15 16 17 18 19 20 21 22 23 24 25 26 27
000
ASUS44 KLIX 181513
RWRLA
LOUISIANA WEATHER ROUNDUP
NATIONAL WEATHER SERVICE NEW ORLEANS LA
1000 AM CDT WED OCT 18 2017

NOTE: "FAIR" INDICATES FEW OR NO CLOUDS BELOW 12,000 FEET WITH NO
      SIGNIFICANT WEATHER AND/OR OBSTRUCTIONS TO VISIBILITY.
      SKY/WX - SKY CONDITION AND SIGNIFICANT WEATHER.
      TMP - AIR TEMPERATURE.    DP   - DEWPOINT TEMPERATURE.
      RH  - RELATIVE HUMIDITY.  PRES - PRESSURE.
      HX  - HEAT INDEX.         WCI  - WIND CHILL INDEX.

*  THESE STATIONS ARE NOT NWS OR FAA STATIONS AND ARE NOT UNDER
   NWS QUALITY CONTROL.

LAZ040-048-061>063-065-066-069-181600-
SOUTHEAST LOUISIANA

CITY           SKY/WX    TMP DP  RH WIND       PRES   REMARKS
N.O. INTL ARPT MOSUNNY   72  61  68 NE8       30.20R
N.O. LAKEFRONT SUNNY     71  61  70 E12       30.20R
N.O. DOWNTOWN* FAIR      71  62  73 E8        30.20R
RESERVE*       FAIR      73  59  61 E6        30.21R
SLIDELL        SUNNY     68  54  60 E7        30.21R
BATON ROUGE    SUNNY     67  53  61 E7        30.21R
BOOTHVILLE     SUNNY     78  64  61 E15       30.17R
BELLE CHASSE   MOSUNNY   73  59  61 E8        30.16R
BOGALUSA*      FAIR      66  53  61 NE3       30.25R
GALLIANO*      SUNNY     73  64  72 NE9       30.18R
NEW ROADS*     FAIR      67  53  60 CALM      30.22R
GONZALES*      FAIR      68  56  66 E5        30.20R
HAMMOND*       SUNNY     68  52  56 E3        30.22R
HOUMA*         SUNNY     72  63  73 NE9       30.19R
PORT FOURCHON* SUNNY     73  68  83 NE15      30.17R

$$

LAZ041-044-053-054-181600-
SOUTHWEST LOUISIANA

CITY           SKY/WX    TMP DP  RH WIND       PRES   REMARKS
LAKE CHARLES   SUNNY     68  60  75 NE6       30.20R
LAFAYETTE      SUNNY     69  58  67 E6        30.20R
PATTERSON      NOT AVBL
SALT POINT       N/A     71  64  78 VRB7      30.17R
NEW IBERIA     SUNNY     68  57  68 E8        30.21R
CHENAULT AIRPK SUNNY     70  61  73 E6        30.21R

$$

LAZ027-028-181600-
CENTRAL LOUISIANA

CITY           SKY/WX    TMP DP  RH WIND       PRES   REMARKS
FORT POLK      SUNNY     66  55  68 CALM      30.21R
ALEXANDRIA INT SUNNY     66  53  63 E6        30.21R
ALEXANDRIA     SUNNY     66  55  67 VRB3      30.22R

$$

LAZ001-002-181600-
NORTHWEST LOUISIANA

CITY           SKY/WX    TMP DP  RH WIND       PRES   REMARKS
SHREVEPORT     SUNNY     65  54  67 SE6       30.22R
BARKSDALE AFB  SUNNY     63  52  66 SE7       30.22R
DTN SHREVEPORT SUNNY     63  53  70 SE6       30.23R

$$

LAZ014-016-181600-
NORTHEAST LOUISIANA

CITY           SKY/WX    TMP DP  RH WIND       PRES   REMARKS
MONROE         SUNNY     65  54  67 VRB3      30.25R
TALLULAH       SUNNY     64  52  64 E7        30.25R

$$





USA.gov is the U.S. government's official web portal to all federal, state and local government web resources and services.